Total_Precipitation_Accumulation
1.74 1.45 2.30 2.36 2.09 1.85 1.77 1.80 1.91 1.99 2.02 1.93 1.89 1.84 1.67 1.44 1.29 1.21 1.11 1.07 1.04 1.02 1.03 0.98 1.04 1.08 1.05 1.03 1.06 1.12 1.17 1.06 1.07 1.07 0.99 1.05 1.20 1.19 1.17 1.38 1.94 2.27 1.66
1.08 1.17 2.13 2.26 1.98 1.80 1.69 1.81 2.02 2.08 2.16 2.11 1.90 1.75 1.58 1.37 1.19 1.10 1.11 1.02 0.98 0.97 0.99 0.99 1.02 1.10 1.14 1.10 1.14 1.19 1.13 1.10 1.16 1.22 1.26 1.31 1.31 1.28 1.23 1.36 1.79 2.08 1.64
0.85 0.99 1.59 2.17 1.98 1.89 1.89 1.90 1.97 2.04 2.02 1.87 1.72 1.60 1.49 1.31 1.16 1.08 1.07 1.00 0.94 0.95 0.88 0.88 0.91 0.99 1.05 1.11 1.13 1.10 0.99 1.05 1.16 1.38 1.87 2.34 1.78 1.45 1.45 1.44 1.60 1.57 1.48
0.88 0.93 1.19 1.96 2.04 2.01 2.05 2.01 1.88 1.81 1.78 1.62 1.56 1.49 1.36 1.33 1.24 1.14 1.09 1.03 0.91 0.87 0.87 0.88 0.84 0.88 0.95 0.99 1.07 0.99 0.91 1.02 1.17 1.43 1.88 2.39 2.24 1.84 1.68 1.65 1.68 1.47 1.42
0.92 0.98 1.35 2.03 2.07 2.04 2.00 1.98 1.99 1.79 1.72 1.54 1.37 1.38 1.35 1.32 1.22 1.17 1.10 1.00 0.90 0.87 0.82 0.84 0.87 0.91 1.01 1.02 1.01 0.96 0.93 1.04 1.27 1.18 1.47 1.99 2.49 2.25 1.74 1.72 1.76 1.58 1.53
0.99 1.07 1.41 1.91 2.01 2.00 1.97 1.96 1.88 1.69 1.57 1.47 1.32 1.34 1.39 1.36 1.25 1.16 1.06 1.00 0.92 0.91 0.86 0.86 0.93 1.02 1.11 1.08 1.05 1.08 1.12 1.12 1.07 1.18 1.50 1.89 2.41 2.26 1.80 1.66 1.55 1.63 1.60
1.05 1.06 1.33 1.79 1.87 1.93 1.84 1.67 1.64 1.62 1.47 1.33 1.27 1.26 1.25 1.25 1.20 1.12 1.17 1.15 1.02 0.96 0.92 0.93 1.03 1.05 1.10 1.10 1.12 1.18 1.25 1.10 1.01 1.29 1.42 1.77 1.97 2.03 1.74 1.57 1.60 1.79 1.73
1.11 1.03 1.14 1.55 1.70 1.73 1.68 1.60 1.61 1.56 1.44 1.26 1.18 1.16 1.15 1.16 1.06 1.01 1.09 1.09 1.03 1.00 0.96 0.93 1.00 0.95 1.00 1.09 1.17 1.25 1.34 1.13 0.97 1.14 1.20 1.55 2.05 2.11 1.68 1.56 1.62 1.79 1.89
1.39 1.20 1.11 1.24 1.41 1.53 1.66 1.67 1.73 1.70 1.60 1.41 1.23 1.17 1.15 1.07 0.92 0.87 0.99 1.04 1.05 0.98 0.97 1.00 1.07 1.02 1.03 1.15 1.26 1.34 1.37 1.15 1.08 1.14 1.01 1.57 2.23 1.99 1.59 1.40 1.43 1.60 1.71
1.37 1.31 1.20 1.23 1.30 1.34 1.47 1.70 1.89 1.96 2.00 1.72 1.37 1.27 1.14 0.97 0.89 0.92 0.93 1.04 1.12 1.13 1.13 1.17 1.22 1.17 1.21 1.21 1.24 1.28 1.19 0.98 1.03 1.01 1.23 1.56 2.11 1.98 1.57 1.35 1.34 1.31 1.38
0.98 1.05 1.10 1.15 1.27 1.28 1.32 1.43 1.76 1.95 2.08 1.73 1.27 1.29 1.15 0.90 0.85 0.93 0.97 1.27 1.37 1.37 1.40 1.43 1.41 1.41 1.35 1.25 1.27 1.28 1.01 0.75 0.88 1.08 1.33 1.71 2.10 2.01 1.59 1.38 1.17 1.15 1.17
0.79 0.76 0.78 0.78 0.87 1.04 1.11 1.37 1.68 1.73 1.83 1.49 1.24 1.25 1.18 1.22 1.13 0.92 1.02 1.38 1.55 1.59 1.49 1.45 1.50 1.41 1.19 0.97 0.98 0.98 0.83 0.80 0.89 1.03 1.30 1.91 2.24 2.04 1.63 1.37 1.16 1.10 1.10
0.59 0.59 0.59 0.62 0.64 0.80 1.10 1.38 1.63 1.75 1.81 1.75 1.69 1.49 1.43 1.34 1.13 0.98 0.95 1.04 1.14 1.22 1.14 1.24 1.27 1.10 1.01 0.91 0.90 0.84 0.75 0.86 1.08 1.08 1.39 2.02 2.35 2.14 1.79 1.51 1.26 1.19 1.21
0.61 0.61 0.55 0.49 0.54 0.67 0.85 1.06 1.37 1.57 1.64 1.61 1.55 1.26 1.30 1.32 1.14 1.08 1.18 1.22 1.18 1.17 1.31 1.36 1.34 1.24 1.08 0.91 0.90 0.91 0.87 0.87 1.07 1.19 1.46 1.78 2.24 2.44 2.14 1.77 1.55 1.49 1.48
0.70 0.79 0.74 0.60 0.57 0.66 0.75 0.76 0.92 1.09 1.19 1.45 1.52 1.16 1.07 1.11 1.21 1.22 1.12 1.27 1.34 1.35 1.36 1.39 1.30 1.22 1.22 1.09 1.10 1.11 1.12 0.99 1.06 1.11 1.28 1.49 1.89 2.49 2.59 2.29 2.05 1.87 1.77
0.56 0.67 0.72 0.72 0.74 0.75 0.72 0.66 0.65 0.70 0.83 0.99 1.04 0.91 0.88 0.91 1.08 1.28 1.19 1.16 1.24 1.43 1.51 1.48 1.38 1.39 1.38 1.22 1.21 1.26 1.23 1.17 1.18 1.21 1.33 1.29 1.32 1.73 2.25 2.50 2.48 2.33 2.13
0.46 0.52 0.60 0.66 0.71 0.76 0.83 0.82 0.68 0.68 0.76 0.78 0.78 0.80 0.84 0.84 1.00 1.21 1.16 1.07 1.07 1.22 1.41 1.58 1.62 1.59 1.39 1.30 1.28 1.31 1.24 1.22 1.22 1.39 1.41 1.42 1.28 1.25 1.60 1.91 2.20 2.33 2.36
0.44 0.45 0.52 0.51 0.58 0.68 0.82 0.90 0.87 0.86 0.85 0.78 0.70 0.64 0.66 0.68 0.77 1.00 1.11 1.04 1.03 1.19 1.42 1.65 1.80 1.83 1.64 1.57 1.60 1.51 1.33 1.30 1.26 1.38 1.42 1.47 1.53 1.28 1.19 1.23 1.46 1.73 1.94
0.42 0.43 0.46 0.48 0.51 0.56 0.69 0.77 0.79 0.82 0.84 0.80 0.74 0.64 0.57 0.58 0.67 0.90 1.14 1.19 1.20 1.33 1.43 1.45 1.68 1.79 1.85 1.76 1.63 1.51 1.42 1.43 1.41 1.35 1.50 1.50 1.49 1.39 1.21 0.96 0.89 1.01 1.33
0.41 0.42 0.47 0.48 0.48 0.49 0.52 0.61 0.70 0.70 0.72 0.77 0.70 0.66 0.69 0.76 0.83 1.04 1.28 1.36 1.46 1.51 1.60 1.78 2.05 2.07 1.95 1.94 1.77 1.55 1.43 1.44 1.46 1.54 1.56 1.54 1.55 1.38 1.21 1.04 0.91 0.71 0.87
0.35 0.38 0.43 0.47 0.47 0.44 0.40 0.45 0.52 0.55 0.67 0.77 0.83 0.89 0.89 0.90 0.99 1.19 1.41 1.67 1.80 1.68 1.73 1.96 2.24 2.39 2.20 2.03 2.10 1.98 1.81 1.62 1.57 1.54 1.54 1.59 1.61 1.53 1.37 1.29 1.18 1.04 0.92
0.24 0.28 0.35 0.37 0.36 0.33 0.31 0.36 0.44 0.52 0.63 0.81 0.97 1.18 1.12 1.04 1.09 1.11 1.35 1.55 1.65 1.74 1.79 1.90 2.17 2.52 2.36 2.09 2.27 2.64 2.44 2.22 1.78 1.46 1.57 1.63 1.68 1.61 1.49 1.32 1.27 1.20 1.15
0.21 0.24 0.28 0.31 0.32 0.31 0.39 0.57 0.84 1.10 1.22 1.28 1.32 1.53 1.56 1.44 1.39 1.36 1.40 1.51 1.60 1.74 1.86 1.91 1.96 2.26 2.38 2.22 2.20 2.73 2.71 2.52 2.34 1.85 1.50 1.55 1.67 1.74 1.71 1.58 1.41 1.33 1.25
0.20 0.25 0.28 0.31 0.38 0.39 0.54 0.86 1.25 1.59 1.71 1.70 1.81 1.88 1.96 1.87 1.69 1.68 1.71 1.78 1.71 1.67 1.73 1.76 1.77 1.96 2.32 2.41 2.26 2.11 2.07 2.17 2.51 2.26 1.74 1.57 1.58 1.61 1.72 1.59 1.60 1.60 1.57
0.26 0.32 0.37 0.43 0.58 0.74 0.88 1.03 1.34 1.52 1.62 1.75 1.91 2.14 2.29 2.36 2.27 2.20 2.16 2.02 1.81 1.74 1.78 1.81 1.82 1.90 2.03 2.21 2.18 2.03 1.98 1.94 1.84 2.05 2.02 1.79 1.58 1.48 1.58 1.62 1.64 1.64 1.71
0.40 0.47 0.51 0.63 0.75 0.83 0.94 1.07 1.21 1.28 1.41 1.63 1.82 2.05 2.21 2.29 2.27 2.20 2.07 1.84 1.65 1.59 1.66 1.81 1.85 1.92 1.92 1.98 1.95 1.85 1.85 1.80 1.73 1.90 1.88 1.88 1.82 1.47 1.36 1.43 1.49 1.53 1.52